Погода в Домбаровке

Россия / Оренбургская область     50°51′16″N   59°19′45″E
темп.,
°C
ветер,
м/с
пор.,
м/с
влажн.,
%
обл.,
%
осадки,
мм/ч
давл.,
гПа
погр.,
м
5 августа, чт
чт523:00+25зсз33412 0.3 101326
02:00+24ююз224065 0.0 101213
05:00+24в33405 0.0 101220
08:00+28ю333395 0.0 1012172
11:00+33юз3421100 0.0 1011518
14:00+37юз4615100 0.0 10093098
17:00+38з4712100 0.0 10074484
20:00+34з6111852 0.0 1007250
6 августа, пт
пт623:00+24зюз364466 0.0 1009118
02:00+23ю225070 0.2 100919
05:00+21зсз345860 0.6 100855
08:00+22зсз61159100 1.5 1009443
11:00+25сз565199 1.5 1009839
14:00+29ссз3437100 0.0 10081852
17:00+31ссз35274 0.0 10082944
20:00+26св811460 0.0 1008420
7 августа, сб
сб723:00+23всв511533 0.0 1009306
02:00+21св511533 0.0 1012345
05:00+18ссв4859100 0.0 1013197
08:00+21св45515 0.0 1014334
11:00+25ссв443678 0.0 10141279
14:00+28с442712 0.0 10132125
17:00+29ссз442399 0.0 10132296
20:00+26св33293 0.0 101341
8 августа, вс
вс823:00+22вюв11340 0.0 101311
02:00+19с510360 0.0 1014197
05:00+17с47450 0.0 1015123
08:00+19св57424 0.0 1017416
11:00+23ссв55345 0.0 10161159
14:00+27с56265 0.0 10151617
17:00+28с56220 0.0 10151945
20:00+25ссв45270 0.0 101596
9 августа, пн
пн923:00+21св45310 0.0 101668
02:00+18всв34410 0.0 101753
05:00+16ссв34540 0.0 101851
08:00+19ссв45470 0.0 1019279
11:00+24ссв333630 0.0 10181307
14:00+27ссв333299 0.0 10171731
17:00+28ссв3331100 0.0 10171974
20:00+26ссв333864 0.0 101748